| time (UTC) | temp C | wind direction | speed KPH | gust KPH | rain 1hr cm | rain 24hr cm | rain mn cm | humidity % | barometer mb |
| 20260506044554 | 7 | 0 | 0.0 | 1.6 | 0.00 | 0.15 | 0.00 | 91 | 1009.1 |
| 20260506043102 | 7 | 0 | 0.0 | 4.8 | 0.00 | 0.15 | 0.00 | 91 | 1009.4 |
| 20260506041556 | 7 | 247 | 0.0 | 3.2 | 0.00 | 0.15 | 0.00 | 90 | 1009.3 |
| 20260506040056 | 7 | 247 | 0.0 | 4.8 | 0.00 | 0.15 | 0.00 | 89 | 1009.0 |
| 20260506034558 | 8 | 0 | 0.0 | 4.8 | 0.00 | 0.15 | 0.15 | 89 | 1009.4 |
| 20260506033114 | 8 | 0 | 0.0 | 0.0 | 0.00 | 0.15 | 0.15 | 88 | 1009.4 |
| 20260506031553 | 8 | 0 | 0.0 | 3.2 | 0.00 | 0.15 | 0.15 | 88 | 1009.7 |
| 20260506030100 | 8 | 247 | 0.0 | 6.4 | 0.00 | 0.15 | 0.15 | 87 | 1009.7 |
| 20260506024608 | 9 | 235 | 0.0 | 3.2 | 0.00 | 0.15 | 0.15 | 86 | 1009.7 |
| 20260506023102 | 9 | 235 | 0.0 | 3.2 | 0.00 | 0.15 | 0.15 | 85 | 1009.8 |
| 20260506021557 | 9 | 261 | 0.0 | 6.4 | 0.00 | 0.15 | 0.15 | 85 | 1009.9 |
| 20260506020052 | 10 | 0 | 1.6 | 12.9 | 0.00 | 0.15 | 0.15 | 84 | 1009.7 |
| 20260506014553 | 10 | 214 | 4.8 | 17.7 | 0.00 | 0.15 | 0.15 | 84 | 1009.4 |
| 20260506013101 | 10 | 227 | 3.2 | 11.3 | 0.00 | 0.15 | 0.15 | 83 | 1009.3 |
| 20260506011610 | 11 | 234 | 3.2 | 9.7 | 0.00 | 0.15 | 0.15 | 83 | 1009.0 |
| 20260506010059 | 11 | 224 | 3.2 | 12.9 | 0.00 | 0.15 | 0.15 | 82 | 1008.9 |
| 20260506004557 | 11 | 236 | 6.4 | 24.1 | 0.00 | 0.15 | 0.15 | 80 | 1008.7 |
| 20260506003057 | 12 | 237 | 3.2 | 12.9 | 0.00 | 0.15 | 0.15 | 81 | 1009.0 |
| 20260506001558 | 14 | 210 | 4.8 | 16.1 | 0.00 | 0.15 | 0.15 | 85 | 1009.0 |
| 20260505234554 | 15 | 220 | 3.2 | 11.3 | 0.00 | 0.15 | 0.15 | 86 | 1007.7 |
| 20260505233056 | 15 | 229 | 3.2 | 14.5 | 0.00 | 0.15 | 0.15 | 84 | 1007.3 |
| 20260505231555 | 16 | 236 | 3.2 | 11.3 | 0.00 | 0.15 | 0.15 | 79 | 1007.4 |
| 20260505224605 | 17 | 214 | 1.6 | 9.7 | 0.00 | 0.15 | 0.15 | 75 | 1006.5 |
| 20260505223109 | 18 | 178 | 6.4 | 14.5 | 0.00 | 0.15 | 0.15 | 69 | 1006.3 |
| 20260505221602 | 18 | 0 | 0.0 | 9.7 | 0.00 | 0.15 | 0.15 | 71 | 1006.0 |
| 20260505220103 | 18 | 247 | 3.2 | 12.9 | 0.00 | 0.15 | 0.15 | 71 | 1005.7 |
| 20260505214553 | 20 | 199 | 1.6 | 20.9 | 0.00 | 0.15 | 0.15 | 67 | 1005.7 |
| 20260505213051 | 20 | 143 | 4.8 | 12.9 | 0.00 | 0.15 | 0.15 | 67 | 1005.6 |
| 20260505211551 | 20 | 174 | 4.8 | 14.5 | 0.00 | 0.15 | 0.15 | 66 | 1005.3 |
| 20260505210054 | 20 | 155 | 3.2 | 14.5 | 0.00 | 0.15 | 0.15 | 69 | 1005.2 |
| 20260505204601 | 19 | 138 | 6.4 | 16.1 | 0.00 | 0.15 | 0.15 | 71 | 1005.5 |
| 20260505203107 | 18 | 143 | 3.2 | 12.9 | 0.03 | 0.15 | 0.15 | 74 | 1005.5 |
| 20260505201555 | 18 | 135 | 4.8 | 12.9 | 0.05 | 0.15 | 0.15 | 79 | 1005.8 |
| 20260505200054 | 16 | 132 | 4.8 | 14.5 | 0.08 | 0.15 | 0.15 | 83 | 1006.2 |
| 20260505194600 | 16 | 148 | 4.8 | 19.3 | 0.08 | 0.15 | 0.15 | 83 | 1006.6 |
| 20260505193051 | 16 | 148 | 3.2 | 12.9 | 0.05 | 0.13 | 0.13 | 82 | 1006.8 |
| 20260505191550 | 18 | 138 | 4.8 | 12.9 | 0.03 | 0.10 | 0.10 | 75 | 1006.6 |
| 20260505190048 | 19 | 150 | 1.6 | 8.0 | 0.00 | 0.08 | 0.08 | 69 | 1006.0 |
| 20260505184553 | 19 | 201 | 1.6 | 9.7 | 0.00 | 0.08 | 0.08 | 67 | 1005.7 |
| 20260505183053 | 21 | 187 | 4.8 | 14.5 | 0.00 | 0.08 | 0.08 | 55 | 1005.1 |
| 20260505181549 | 22 | 136 | 6.4 | 24.1 | 0.00 | 0.08 | 0.08 | 47 | 1004.8 |
| 20260505180051 | 22 | 148 | 6.4 | 24.1 | 0.00 | 0.08 | 0.08 | 47 | 1004.8 |
| 20260505174549 | 22 | 0 | 4.8 | 16.1 | 0.00 | 0.08 | 0.08 | 50 | 1005.1 |
| 20260505173053 | 22 | 147 | 6.4 | 19.3 | 0.00 | 0.08 | 0.08 | 48 | 1005.3 |
| 20260505171550 | 21 | 241 | 3.2 | 11.3 | 0.00 | 0.08 | 0.08 | 50 | 1005.8 |
| 20260505170050 | 22 | 146 | 4.8 | 22.5 | 0.00 | 0.08 | 0.08 | 49 | 1005.6 |
| 20260505164600 | 22 | 143 | 8.0 | 20.9 | 0.00 | 0.08 | 0.08 | 48 | 1005.7 |
| 20260505163053 | 22 | 131 | 6.4 | 27.4 | 0.00 | 0.08 | 0.08 | 49 | 1005.1 |
| 20260505161556 | 22 | 131 | 4.8 | 25.7 | 0.00 | 0.08 | 0.08 | 48 | 1005.2 |
| 20260505153106 | 23 | 140 | 6.4 | 17.7 | 0.00 | 0.08 | 0.08 | 47 | 1005.7 |
| 20260505151553 | 23 | 145 | 4.8 | 29.0 | 0.00 | 0.08 | 0.08 | 49 | 1005.5 |
| 20260505124559 | 18 | 138 | 8.0 | 20.9 | 0.00 | 0.08 | 0.08 | 59 | 1005.6 |
| 20260505123059 | 18 | 155 | 8.0 | 19.3 | 0.00 | 0.08 | 0.08 | 62 | 1006.0 |
| 20260505121553 | 17 | 137 | 6.4 | 19.3 | 0.00 | 0.08 | 0.08 | 65 | 1006.0 |
| 20260505120103 | 16 | 150 | 6.4 | 16.1 | 0.00 | 0.08 | 0.08 | 68 | 1006.0 |
| 20260505114555 | 15 | 135 | 6.4 | 14.5 | 0.00 | 0.08 | 0.08 | 71 | 1005.9 |
| 20260505113113 | 15 | 138 | 6.4 | 17.7 | 0.00 | 0.08 | 0.08 | 73 | 1005.9 |
| 20260505111554 | 15 | 143 | 6.4 | 16.1 | 0.00 | 0.08 | 0.08 | 74 | 1005.8 |
| 20260505101600 | 13 | 138 | 4.8 | 14.5 | 0.08 | 0.08 | 0.08 | 80 | 1005.2 |
| 20260505100055 | 15 | 132 | 11.3 | 27.4 | 0.08 | 0.08 | 0.08 | 72 | 1005.8 |
| 20260505094558 | 16 | 0 | 3.2 | 11.3 | 0.00 | 0.00 | 0.00 | 62 | 1005.7 |
| 20260505093102 | 16 | 140 | 6.4 | 12.9 | 0.00 | 0.00 | 0.00 | 63 | 1005.3 |
| 20260505091553 | 15 | 147 | 4.8 | 14.5 | 0.00 | 0.00 | 0.00 | 64 | 1005.3 |
| 20260505090059 | 15 | 125 | 1.6 | 9.7 | 0.00 | 0.00 | 0.00 | 64 | 1005.2 |
| 20260505084555 | 15 | 133 | 3.2 | 9.7 | 0.00 | 0.00 | 0.00 | 64 | 1004.9 |
| 20260505083105 | 15 | 134 | 1.6 | 11.3 | 0.00 | 0.00 | 0.00 | 63 | 1005.0 |
| 20260505081601 | 15 | 129 | 3.2 | 8.0 | 0.00 | 0.00 | 0.00 | 63 | 1005.1 |
| 20260505080108 | 15 | 122 | 4.8 | 9.7 | 0.00 | 0.00 | 0.00 | 62 | 1005.0 |
| 20260505074557 | 16 | 121 | 3.2 | 8.0 | 0.00 | 0.00 | 0.00 | 62 | 1005.1 |
| 20260505073101 | 16 | 115 | 4.8 | 12.9 | 0.00 | 0.00 | 0.00 | 61 | 1004.9 |
| 20260505071606 | 16 | 150 | 4.8 | 16.1 | 0.00 | 0.00 | 0.00 | 61 | 1005.0 |
| 20260505070053 | 16 | 138 | 3.2 | 11.3 | 0.00 | 0.00 | 0.00 | 61 | 1005.0 |
| 20260505064600 | 16 | 139 | 4.8 | 14.5 | 0.00 | 0.00 | 0.00 | 60 | 1005.2 |
| 20260505063102 | 16 | 133 | 4.8 | 14.5 | 0.00 | 0.00 | 0.00 | 59 | 1005.2 |
| 20260505061557 | 16 | 130 | 4.8 | 11.3 | 0.00 | 0.00 | 0.00 | 59 | 1005.2 |
| 20260505060100 | 16 | 141 | 6.4 | 16.1 | 0.00 | 0.00 | 0.00 | 58 | 1005.1 |